Theta_e
303 303 302 302 302 302 302 302 302 302 302 302 302 301 301 300 299 299 299 301 296 291 291 292 292 289 288 288 283 287 286 287 285 280 279 279 277 280 278 280 279 277 276 276 277 274 271 287 286 280 285 289 290 290
302 302 301 301 302 302 302 302 302 301 302 302 301 301 301 301 300 298 296 300 300 294 291 296 296 297 295 293 289 289 287 286 287 283 283 282 279 281 279 274 283 276 280 278 279 278 287 289 288 291 291 289 290 290
301 301 301 301 301 301 301 301 301 301 301 301 301 300 300 301 301 299 299 300 297 291 290 291 291 296 299 297 298 288 289 291 289 292 286 284 278 281 276 277 279 282 285 279 281 283 284 288 290 291 291 291 292 293
301 301 301 301 301 300 300 301 301 301 301 301 301 301 300 300 300 300 296 299 296 290 283 288 297 294 299 299 297 296 293 294 293 292 286 282 279 284 279 280 280 283 283 281 281 284 286 288 289 291 291 292 292 293
300 300 300 300 300 300 300 300 300 300 300 300 299 299 299 299 299 300 300 301 301 291 283 286 292 295 296 296 294 294 293 291 290 286 284 281 284 284 284 283 280 285 282 280 279 286 286 287 291 293 291 291 292 292
299 300 300 300 300 300 299 300 300 300 300 299 298 298 297 298 298 298 292 299 299 296 288 281 291 290 293 294 292 292 292 291 291 287 285 286 288 285 279 277 284 286 288 288 285 290 289 291 292 293 291 292 292 292
299 299 299 299 299 299 299 299 300 299 298 298 297 296 297 299 298 293 290 293 298 297 287 282 283 290 292 292 292 291 292 290 290 287 285 285 285 286 282 277 284 287 288 289 291 290 288 289 288 292 293 293 294 294
299 299 299 299 299 299 299 299 299 298 297 296 297 298 299 298 296 293 296 298 298 292 289 281 281 285 291 287 286 292 289 290 289 286 286 283 285 285 279 284 286 288 289 289 290 291 291 291 291 291 292 292 291 291
298 298 298 299 299 299 299 299 298 297 297 298 299 298 297 295 293 293 296 296 298 292 283 283 279 278 291 287 288 290 290 282 288 283 283 284 282 279 283 285 287 288 287 288 288 289 288 288 288 288 288 288 288 289
298 298 298 298 298 299 299 299 298 297 298 298 296 293 284 293 295 295 292 289 287 289 288 282 285 281 288 286 285 285 287 282 279 283 287 282 281 287 288 288 290 290 290 289 285 284 286 284 285 285 286 287 288 288
297 298 298 298 298 298 299 298 298 298 297 294 291 289 294 295 293 289 283 282 285 282 285 285 285 282 289 282 282 286 282 283 277 281 281 280 280 284 289 289 289 289 289 288 288 287 286 286 285 285 285 286 287 288
297 297 298 298 298 298 299 298 298 297 296 294 294 296 294 288 286 280 280 283 282 279 286 285 285 287 287 289 284 285 281 282 275 286 281 278 283 287 287 286 287 288 288 288 287 286 286 286 286 285 285 285 288 288
297 298 297 298 298 298 298 298 297 296 294 295 290 286 286 284 276 276 275 278 280 285 287 287 284 286 287 287 284 283 279 278 286 280 279 282 285 286 286 286 286 287 288 287 286 286 286 286 286 284 284 285 286 287
297 298 298 298 298 298 298 298 296 294 293 288 284 277 279 278 279 281 282 283 288 288 287 287 286 285 286 283 283 279 282 283 278 276 277 283 285 285 286 287 286 286 286 285 285 285 285 285 284 284 285 284 285 285
297 297 298 297 298 298 298 297 296 295 292 285 284 277 279 284 287 288 289 287 288 290 288 287 287 287 284 282 283 282 279 277 279 278 282 285 286 286 286 286 286 285 284 284 285 284 284 284 284 283 285 284 284 285
297 296 295 297 297 298 297 296 294 294 290 286 284 281 285 285 285 286 287 287 290 290 290 289 284 282 281 283 281 279 278 277 280 284 287 287 286 285 286 286 285 285 284 284 285 284 285 285 284 284 285 284 284 285
296 295 297 297 297 297 297 294 292 288 285 283 283 288 287 287 286 288 288 289 292 288 283 284 280 279 285 280 279 283 281 283 286 287 288 287 286 286 286 285 284 284 284 284 284 284 285 286 286 285 284 284 284 284
295 297 297 297 297 294 292 292 288 285 281 284 283 287 288 290 289 289 290 291 289 287 286 282 286 280 279 277 280 285 287 288 289 289 288 288 287 287 286 285 285 285 285 285 284 284 285 284 284 285 285 285 285 284
294 297 297 296 295 292 288 287 289 282 283 286 288 289 289 290 291 291 291 292 291 291 287 284 281 280 282 285 285 287 288 288 287 289 289 287 287 286 285 286 285 286 284 284 285 285 285 284 285 286 286 286 284 285
297 296 296 296 294 290 285 286 291 285 282 286 288 288 288 288 290 291 291 289 287 284 281 280 282 285 286 288 289 289 289 290 288 286 286 288 289 287 286 286 286 286 285 286 286 285 285 285 287 287 286 286 284 284
295 295 295 294 292 290 288 286 285 286 286 284 287 287 286 288 288 288 288 290 284 282 281 286 287 289 288 289 290 290 289 287 285 283 283 283 286 286 286 287 287 286 285 285 284 284 284 284 285 287 286 285 286 285
294 294 293 292 288 288 287 289 286 288 285 285 285 286 284 284 284 286 288 285 284 285 287 287 288 288 288 287 286 286 286 285 285 285 285 285 284 284 284 285 285 284 284 284 284 283 284 285 286 286 286 285 286 286
294 293 290 289 284 283 281 289 282 283 279 281 283 281 282 283 286 289 284 286 287 290 290 289 287 286 285 286 286 286 286 285 284 284 285 285 285 285 285 285 285 284 283 284 285 284 284 284 285 284 284 284 285 285
292 288 283 282 282 279 283 280 283 281 282 281 280 279 281 283 287 283 281 284 287 289 288 285 286 285 285 284 284 284 284 285 284 284 285 284 282 283 284 283 284 284 283 283 283 283 283 282 281 282 282 282 282 283
283 281 281 279 283 279 278 278 279 279 278 280 279 280 282 285 280 279 279 282 284 284 284 285 284 283 281 282 282 283 284 284 282 281 283 283 282 281 280 281 281 282 283 282 280 280 279 279 279 279 279 279 279 280
278 282 279 280 281 279 279 277 279 279 279 279 280 282 284 280 277 276 279 279 280 280 281 280 280 279 279 280 280 280 281 282 281 278 279 280 278 277 276 276 276 278 282 280 278 277 276 276 276 276 277 278 279 279
278 280 283 287 284 283 281 282 282 280 278 277 280 279 278 274 274 278 281 281 280 281 282 282 280 279 279 280 280 280 280 280 278 277 278 278 279 279 279 277 275 278 278 277 276 276 275 275 275 276 276 277 278 279
281 283 279 282 281 283 279 279 278 277 278 281 280 276 274 275 275 280 280 282 281 281 280 281 280 279 278 278 278 278 278 278 279 278 277 277 278 278 278 277 276 275 275 276 276 276 276 275 275 275 276 276 276 278
279 282 282 278 280 280 280 279 279 281 281 279 276 275 276 279 282 281 281 280 280 279 277 276 276 278 277 278 278 277 277 276 274 270 269 270 271 273 275 274 274 275 275 275 275 275 275 275 275 275 275 276 277 279
280 284 280 279 277 276 281 283 282 283 282 281 280 278 279 280 281 281 279 278 276 275 275 275 275 275 273 273 273 274 276 276 275 273 270 269 270 273 273 273 273 273 273 273 273 273 274 275 275 276 276 277 277 277
283 282 279 279 278 282 284 283 283 282 282 280 280 277 276 278 278 279 277 277 276 276 275 274 274 274 273 273 272 271 271 275 275 274 274 273 274 274 273 273 272 272 272 272 272 272 272 272 273 273 274 274 275 275
280 278 277 274 277 283 283 279 278 276 277 277 276 278 278 276 274 275 277 278 276 275 272 273 273 274 275 275 274 275 274 274 274 274 275 273 273 273 272 272 271 272 271 270 270 270 271 271 272 272 272 273 274 275
278 278 278 276 275 274 277 275 273 272 273 273 274 275 275 274 270 275 277 278 276 275 275 275 276 275 275 274 275 274 273 273 273 272 271 271 271 271 271 271 271 270 270 270 271 271 271 271 272 272 273 274 274 274
Wind_Speed
19 18 19 19 19 18 18 18 17 17 16 14 13 11 9 5 2 4 3 2 4 2 6 5 6 7 8 6 7 6 5 4 6 7 7 11 11 13 15 16 16 13 13 12 13 18 22 17 18 15 14 18 18 18
18 18 18 18 18 17 17 17 17 16 14 12 11 10 8 7 2 3 1 3 4 1 6 10 10 12 12 12 7 5 7 12 3 4 5 5 9 9 17 15 15 17 14 13 16 12 18 20 21 20 18 16 18 18
18 18 18 18 18 18 17 15 14 13 12 10 9 9 8 8 7 6 1 2 1 2 6 6 9 10 13 12 11 7 8 12 11 9 4 5 9 8 11 12 18 18 18 14 18 20 22 21 21 18 18 20 22 19
17 18 18 17 17 16 15 13 12 12 11 9 9 9 9 8 8 8 4 1 1 2 3 5 6 6 6 9 11 13 15 13 11 5 5 6 9 9 12 16 18 13 18 18 20 21 19 21 20 21 21 20 18 19
16 16 16 16 16 15 14 14 12 12 11 11 10 8 6 5 5 6 3 3 3 2 3 7 14 17 15 14 13 12 11 12 7 5 6 9 10 11 12 14 18 13 20 14 16 21 20 23 22 21 19 17 17 21
14 16 15 15 15 14 13 12 12 11 10 10 8 6 4 3 4 3 2 3 4 3 2 4 7 14 11 8 9 11 10 9 6 4 5 6 14 10 7 11 21 17 18 18 17 18 19 18 19 19 18 18 20 20
16 15 15 14 13 13 12 11 11 10 9 8 6 2 2 3 4 1 2 3 8 6 2 5 5 4 2 6 5 6 10 7 7 4 7 11 11 11 12 18 28 21 23 22 18 19 22 21 18 22 23 22 21 22
14 14 13 13 12 12 12 11 10 9 7 4 2 4 5 7 6 3 3 6 3 2 3 3 5 7 6 5 6 6 4 3 4 5 5 9 8 8 9 17 19 16 19 19 18 18 16 18 19 20 19 19 19 17
13 12 12 12 11 11 11 10 9 8 5 8 10 10 5 5 1 2 5 4 4 3 3 3 4 5 1 6 5 3 3 5 5 6 7 5 6 7 11 13 18 18 15 12 14 13 16 17 18 19 20 21 21 19
11 11 11 10 10 9 10 10 9 8 9 10 7 2 1 3 11 8 3 2 1 3 5 6 7 8 4 3 3 3 4 4 4 7 3 4 7 14 13 14 13 10 13 17 13 17 17 19 18 21 21 18 16 16
11 10 10 10 9 9 9 11 9 10 7 3 3 1 4 4 4 1 2 3 5 4 5 5 8 8 3 5 4 3 4 2 4 2 3 3 1 3 6 7 10 12 13 14 15 17 18 17 18 18 19 19 14 13
11 10 9 8 8 9 11 12 13 9 1 1 2 5 4 1 2 3 4 4 5 4 1 1 3 4 4 3 4 4 4 3 6 4 3 3 2 7 10 13 13 13 13 13 17 17 18 17 15 14 15 15 11 6
10 9 9 8 7 10 13 13 17 4 4 4 3 2 3 4 5 5 6 4 3 2 3 4 5 2 2 3 4 3 5 6 1 4 3 3 7 10 11 10 12 12 13 14 17 16 18 18 17 12 13 13 7 5
10 10 9 8 9 8 10 13 8 3 3 3 3 3 4 5 6 5 6 3 1 4 7 6 4 3 3 5 4 5 5 4 4 4 4 5 9 10 10 10 11 14 14 15 16 16 17 16 16 13 10 10 10 4
10 9 8 7 8 11 13 10 4 4 3 3 3 4 7 8 6 5 5 6 6 7 7 6 4 4 4 4 4 5 4 6 1 3 3 4 8 9 10 11 12 11 12 13 14 15 16 16 13 13 10 9 8 5
10 7 6 12 9 12 13 7 4 3 3 3 5 5 6 7 5 3 6 6 7 7 7 5 4 4 4 3 4 6 4 2 3 2 3 5 7 8 10 9 10 9 10 11 11 14 14 14 12 13 9 8 8 5
12 2 12 11 10 14 12 4 2 4 4 4 4 5 8 7 6 5 7 6 6 5 3 4 4 5 4 4 5 2 4 3 3 4 4 6 6 8 8 9 8 9 11 10 11 12 13 13 10 8 12 8 6 5
4 8 14 13 11 6 0 4 3 4 6 6 7 6 7 6 7 6 6 6 4 4 4 4 5 6 6 11 10 7 3 3 3 3 4 5 7 7 7 10 10 10 10 10 10 8 10 12 12 9 8 9 5 1
6 10 15 16 7 3 3 3 4 5 7 6 6 7 7 6 6 7 7 7 7 3 1 4 7 6 8 8 9 8 7 6 6 4 4 4 4 4 5 7 10 8 10 11 10 8 7 10 9 7 5 6 7 5
12 16 14 11 2 2 4 4 4 5 5 4 6 7 6 7 6 4 5 4 1 2 5 6 8 10 8 8 7 6 6 5 5 6 6 5 6 6 7 9 7 9 9 10 8 8 8 8 7 6 5 5 6 7
7 6 6 4 2 4 3 3 5 5 6 6 5 5 4 6 7 8 8 5 5 5 7 8 9 8 2 3 4 5 5 6 4 3 6 7 6 8 8 7 7 7 8 7 8 9 8 8 9 7 6 6 5 6
4 10 3 5 3 4 6 5 4 2 3 5 7 7 7 7 7 7 5 7 6 8 8 9 9 8 5 3 4 3 2 5 7 6 7 7 6 7 8 8 8 8 8 7 7 8 8 8 8 8 7 7 6 6
11 6 3 6 5 4 5 2 4 4 5 4 4 4 4 4 4 2 5 5 5 7 8 6 3 1 1 2 4 5 3 6 6 7 7 8 7 6 8 8 7 8 9 8 8 7 8 10 8 8 9 9 8 8
2 3 2 4 6 4 2 3 4 4 5 9 6 8 9 7 6 7 9 9 9 8 5 4 1 3 3 4 4 4 6 6 7 8 8 8 8 7 7 9 8 7 8 9 9 8 6 7 10 9 10 11 11 10
5 6 5 6 5 5 6 5 6 6 5 8 13 10 5 4 5 8 13 8 8 8 5 4 4 4 4 6 6 7 10 8 8 8 7 7 8 7 8 8 9 9 9 9 8 9 9 9 10 11 11 12 14 15
7 7 10 6 6 6 6 4 5 6 8 5 5 4 2 3 4 7 4 6 6 6 7 7 7 8 8 8 10 7 6 6 7 8 8 7 7 8 8 9 9 9 7 8 9 12 13 12 14 14 12 14 15 14
6 7 6 5 4 3 4 5 7 9 11 8 4 3 3 5 5 3 3 4 4 5 6 6 7 9 9 8 7 7 6 6 6 7 8 8 7 7 7 8 11 9 10 11 11 12 13 14 14 13 13 12 12 12
7 4 7 5 6 6 9 6 8 9 5 1 2 4 4 3 2 3 4 6 6 7 8 7 7 7 6 6 5 5 5 5 5 5 6 7 7 7 8 8 10 17 12 11 11 11 12 12 13 14 14 14 13 12
6 5 4 8 8 7 6 7 6 3 2 1 3 5 7 7 8 9 6 5 6 6 6 6 6 5 5 4 5 6 6 6 8 11 12 10 9 6 7 9 10 10 10 11 15 15 17 15 15 14 17 14 14 14
9 7 9 6 5 6 5 4 4 2 2 4 5 9 10 8 4 3 3 3 3 3 3 2 2 4 5 6 6 6 5 5 6 6 9 12 11 10 10 11 11 11 11 12 13 14 17 15 15 13 12 11 11 12
2 3 4 7 10 7 2 3 3 6 7 8 6 8 10 6 3 2 3 2 2 1 0 1 2 2 3 5 6 8 8 5 8 11 11 10 11 9 10 11 11 11 12 13 14 14 15 15 14 16 16 16 17 16
5 7 4 5 7 3 5 6 6 7 8 9 9 8 8 7 6 3 2 2 3 3 2 3 4 4 4 5 6 7 10 10 12 13 11 9 10 12 12 12 12 12 13 14 14 15 16 17 15 16 16 20 19 18
3 3 5 6 4 3 1 4 5 6 6 8 8 7 4 1 3 3 3 1 2 3 3 4 5 6 7 8 9 9 11 11 15 17 17 16 17 16 12 10 12 13 16 15 15 15 18 20 17 19 19 19 20 21
Wind_Direction
108 113 117 116 120 121 123 125 127 127 129 132 136 139 150 157 282 307 68 57 335 317 292 286 292 283 280 257 283 341 312 240 280 271 269 274 269 273 278 292 300 294 288 280 277 269 271 278 283 288 306 290 286 291
115 114 114 116 120 122 122 125 126 128 132 134 130 138 154 174 212 324 159 15 359 299 302 327 292 296 294 296 303 249 262 285 267 286 292 313 303 306 297 291 299 291 290 286 276 281 298 303 295 300 300 303 308 304
117 119 120 122 124 125 123 122 122 126 129 131 138 145 162 184 195 237 331 139 90 348 283 261 270 246 235 237 256 266 274 285 301 322 319 282 268 290 289 291 301 297 299 295 291 284 290 288 284 290 304 288 278 287
118 120 121 121 119 117 118 119 123 126 131 139 144 158 170 189 205 222 244 146 107 83 285 302 335 301 237 244 245 230 254 274 276 287 288 276 277 279 279 291 287 288 294 288 284 289 294 290 288 282 276 274 281 274
119 119 119 118 115 116 118 118 121 124 136 148 149 151 163 185 201 238 264 230 192 250 314 303 298 268 258 250 235 250 256 257 270 266 251 259 264 278 280 279 269 271 266 265 274 278 274 276 277 279 294 300 279 273
115 111 109 108 112 119 124 132 139 143 139 136 136 138 153 180 202 234 267 156 147 116 248 292 306 300 276 242 255 254 241 243 227 231 263 243 258 256 267 266 274 280 273 269 278 298 306 315 323 319 314 312 309 302
122 123 125 129 134 137 139 139 135 132 133 137 141 150 186 197 237 260 6 200 152 197 297 290 281 309 227 248 243 236 234 243 254 244 241 261 260 260 257 266 276 288 287 290 312 321 308 305 305 309 299 297 298 285
126 127 129 129 129 132 133 132 132 131 126 128 185 184 162 136 124 176 148 163 183 232 232 268 271 278 263 230 238 245 265 250 228 242 248 262 275 252 257 262 274 295 324 311 310 306 297 300 288 284 288 286 280 284
127 127 128 128 127 128 132 131 130 124 129 138 137 146 156 226 206 107 114 152 225 268 276 218 273 308 323 258 272 203 207 231 222 228 225 232 222 233 257 294 317 313 325 324 318 311 299 298 305 302 295 286 281 282
126 128 130 129 130 130 135 135 133 142 153 159 189 141 323 75 120 149 159 204 218 236 217 256 264 258 304 271 281 274 197 227 247 226 246 221 253 262 282 296 302 307 320 332 323 320 324 317 312 307 301 292 278 270
134 132 135 137 139 144 146 146 148 148 164 208 218 108 89 138 229 39 250 229 203 228 213 238 216 244 195 251 261 239 285 242 254 212 213 250 163 306 294 340 350 340 342 339 322 320 315 307 301 302 305 296 280 261
144 146 148 153 158 162 156 157 164 193 181 254 327 178 137 158 263 228 233 227 228 257 92 311 276 240 246 215 240 219 252 229 254 127 235 237 83 5 6 357 351 345 346 334 328 324 323 313 317 312 306 308 305 268
151 156 159 157 153 154 155 172 185 350 248 213 219 60 241 159 236 230 199 219 241 323 245 274 294 256 247 225 234 254 239 232 157 224 222 76 7 12 7 356 349 345 343 339 330 327 326 325 333 331 327 334 325 329
157 162 162 160 159 168 177 172 185 235 274 224 171 214 228 185 244 214 257 346 298 278 294 289 288 248 208 207 239 246 230 269 247 235 82 18 358 3 352 351 342 342 346 334 332 330 333 332 336 333 337 340 342 1
161 163 161 167 170 163 164 171 193 228 269 236 219 239 220 246 304 320 324 302 291 294 304 307 269 215 219 236 219 257 241 242 243 68 22 354 345 354 346 345 342 341 334 330 330 334 333 332 338 330 334 337 337 333
151 129 199 153 172 174 163 173 202 258 269 251 240 238 271 282 272 296 297 294 297 292 314 279 249 263 248 239 235 233 256 324 73 3 340 339 352 340 338 338 333 328 322 322 331 330 327 330 337 330 330 345 342 338
187 217 144 152 154 154 170 189 216 234 225 240 246 238 253 267 284 286 283 281 304 304 279 290 274 253 290 252 260 261 316 358 2 342 330 335 341 337 332 330 324 321 318 321 327 328 326 326 322 334 346 346 347 357
243 136 141 139 138 101 24 224 239 250 240 243 254 251 257 260 262 262 262 265 276 254 266 263 300 267 263 272 291 338 337 273 280 306 327 334 323 324 328 319 319 310 308 323 310 305 336 333 334 340 341 336 310 296
343 152 143 137 154 154 181 226 229 260 239 254 256 254 258 260 253 263 261 260 264 278 246 255 251 246 256 292 325 326 323 328 319 323 299 258 275 299 293 319 303 313 331 313 321 334 331 328 313 330 317 336 330 321
146 141 150 178 281 221 233 226 214 254 264 267 261 253 254 255 256 259 262 256 225 175 214 227 243 261 289 304 305 303 315 318 313 301 299 334 335 326 320 306 314 321 317 317 329 324 324 326 330 334 336 322 325 321
132 138 148 207 260 249 269 260 228 245 270 267 282 273 258 269 259 246 249 242 188 206 236 239 253 261 330 342 338 330 327 1 345 338 319 310 312 308 300 312 321 313 307 321 323 323 332 328 321 328 319 324 312 306
105 153 166 189 246 239 242 232 248 274 267 261 275 260 255 252 258 247 237 239 230 234 234 255 269 294 307 340 352 358 356 306 299 293 272 275 301 311 311 309 311 311 308 314 311 310 318 314 333 336 328 318 305 306
156 184 203 198 220 252 261 277 251 238 243 250 244 254 246 239 235 220 246 224 238 236 246 264 71 232 293 191 251 263 226 276 288 299 304 300 302 305 300 301 304 305 306 310 313 317 318 325 331 333 326 321 320 304
183 176 236 226 220 248 201 237 229 251 250 242 259 255 259 258 263 259 264 271 271 274 310 104 183 309 302 274 301 349 357 327 304 296 296 292 299 307 307 305 305 314 319 320 314 310 328 329 331 326 321 316 316 313
216 202 216 212 211 221 217 225 218 229 248 245 265 266 270 280 265 270 279 296 45 40 36 22 5 11 351 340 329 322 299 304 307 304 308 321 322 329 326 325 321 317 310 318 338 334 329 326 321 315 317 315 314 311
224 191 199 216 194 209 217 242 215 225 259 259 247 265 297 271 257 264 354 43 35 10 5 2 348 335 320 300 290 307 334 342 336 305 313 343 332 320 313 306 306 307 343 351 336 326 318 311 304 302 301 303 304 309
233 223 195 229 267 241 258 258 271 277 284 271 255 282 266 254 268 54 128 64 7 351 341 325 310 301 304 315 350 356 348 350 349 330 315 315 317 319 328 328 322 332 340 329 321 308 301 301 300 298 296 297 296 299
226 252 233 202 227 234 260 273 279 271 261 316 280 225 246 249 290 18 331 19 355 335 330 327 19 357 354 350 348 342 347 340 329 350 346 332 348 341 345 348 329 320 308 300 300 297 292 291 294 295 293 292 294 291
228 232 251 261 257 252 253 248 246 254 105 227 261 266 282 307 322 319 358 11 359 353 356 351 353 352 11 11 29 18 357 351 344 335 332 321 320 322 333 314 307 305 303 303 304 301 297 295 293 291 287 284 282 282
231 212 237 243 219 227 232 257 306 38 301 297 286 284 288 302 26 59 40 35 30 25 16 10 5 16 17 3 353 345 343 340 329 328 314 309 304 308 311 310 310 311 308 304 304 303 300 295 292 290 286 288 289 290
165 175 243 253 260 258 330 57 271 263 263 278 285 285 289 300 152 119 97 97 104 131 215 19 11 19 341 327 326 322 313 320 313 300 288 283 283 297 308 309 310 306 300 296 297 298 299 300 298 295 291 290 289 288
190 214 239 249 260 275 329 297 288 283 281 278 280 275 277 271 271 116 134 213 211 215 174 265 281 310 338 329 316 294 299 314 314 307 318 326 313 312 310 310 302 300 304 303 297 293 291 293 292 291 291 290 287 286
244 268 280 289 280 257 270 309 297 292 265 273 280 287 283 296 312 101 141 224 308 326 307 301 304 301 306 300 297 322 323 318 323 320 313 314 310 303 299 307 304 298 295 294 294 296 297 294 293 292 293 293 290 286